| time (UTC) | temp F | wind direction | speed MPH | gust MPH | rain 1hr in | rain 24hr in | rain mn in | humidity % | barometer mb |
| 20260506235039 | 87 | 288 | 14.0 | 21.0 | 0.00 | 0.00 | 0.00 | 30 | 1009.6 |
| 20260506234040 | 88 | 275 | 5.0 | 9.0 | 0.00 | 0.00 | 0.00 | 31 | 1009.5 |
| 20260506233039 | 88 | 284 | 1.0 | 3.0 | 0.00 | 0.00 | 0.00 | 31 | 1009.5 |
| 20260506232040 | 88 | 300 | 4.0 | 10.0 | 0.00 | 0.00 | 0.00 | 31 | 1009.6 |
| 20260506231040 | 88 | 235 | 2.0 | 8.0 | 0.00 | 0.00 | 0.00 | 30 | 1009.7 |
| 20260506230040 | 88 | 322 | 1.0 | 5.0 | 0.00 | 0.00 | 0.00 | 31 | 1009.8 |
| 20260506225100 | 87 | 253 | 1.0 | 5.0 | 0.00 | 0.00 | 0.00 | 31 | 1009.9 |
| 20260506224040 | 86 | 76 | 1.0 | 6.0 | 0.00 | 0.00 | 0.00 | 32 | 1010.1 |
| 20260506223101 | 86 | 214 | 4.0 | 11.0 | 0.00 | 0.00 | 0.00 | 33 | 1010.2 |
| 20260506222040 | 87 | 226 | 3.0 | 8.0 | 0.00 | 0.00 | 0.00 | 35 | 1010.4 |
| 20260506221041 | 87 | 198 | 4.0 | 9.0 | 0.00 | 0.00 | 0.00 | 35 | 1010.4 |
| 20260506220041 | 87 | 172 | 2.0 | 11.0 | 0.00 | 0.00 | 0.00 | 34 | 1010.5 |
| 20260506215041 | 86 | 131 | 2.0 | 8.0 | 0.00 | 0.00 | 0.00 | 35 | 1010.7 |
| 20260506214041 | 85 | 158 | 7.0 | 14.0 | 0.00 | 0.00 | 0.00 | 34 | 1010.6 |
| 20260506213041 | 86 | 158 | 7.0 | 16.0 | 0.00 | 0.00 | 0.00 | 34 | 1010.7 |
| 20260506212101 | 85 | 175 | 8.0 | 12.0 | 0.00 | 0.00 | 0.00 | 34 | 1010.7 |
| 20260506211041 | 85 | 138 | 5.0 | 12.0 | 0.00 | 0.00 | 0.00 | 34 | 1010.7 |
| 20260506210041 | 85 | 178 | 5.0 | 12.0 | 0.00 | 0.00 | 0.00 | 34 | 1010.8 |
| 20260506205041 | 86 | 171 | 8.0 | 16.0 | 0.00 | 0.00 | 0.00 | 34 | 1010.8 |
| 20260506204042 | 85 | 177 | 9.0 | 17.0 | 0.00 | 0.00 | 0.00 | 34 | 1010.9 |
| 20260506203042 | 85 | 167 | 7.0 | 13.0 | 0.00 | 0.00 | 0.00 | 35 | 1010.9 |
| 20260506202042 | 85 | 166 | 9.0 | 17.0 | 0.00 | 0.00 | 0.00 | 34 | 1010.9 |
| 20260506201042 | 84 | 189 | 8.0 | 16.0 | 0.00 | 0.00 | 0.00 | 35 | 1011.0 |
| 20260506200042 | 83 | 129 | 6.0 | 12.0 | 0.00 | 0.00 | 0.00 | 36 | 1011.2 |
| 20260506195042 | 83 | 166 | 7.0 | 14.0 | 0.00 | 0.00 | 0.00 | 36 | 1011.3 |
| 20260506194043 | 83 | 174 | 8.0 | 14.0 | 0.00 | 0.00 | 0.00 | 37 | 1011.5 |
| 20260506193043 | 82 | 164 | 10.0 | 16.0 | 0.00 | 0.00 | 0.00 | 37 | 1011.6 |
| 20260506192042 | 82 | 166 | 8.0 | 13.0 | 0.00 | 0.00 | 0.00 | 38 | 1011.8 |
| 20260506191043 | 81 | 179 | 9.0 | 15.0 | 0.00 | 0.00 | 0.00 | 38 | 1011.8 |
| 20260506190043 | 80 | 165 | 8.0 | 14.0 | 0.00 | 0.00 | 0.00 | 40 | 1011.9 |
| 20260506185104 | 79 | 167 | 8.0 | 14.0 | 0.00 | 0.00 | 0.00 | 43 | 1011.9 |
| 20260506184043 | 79 | 171 | 8.0 | 15.0 | 0.00 | 0.00 | 0.00 | 43 | 1011.9 |
| 20260506183103 | 78 | 169 | 7.0 | 16.0 | 0.00 | 0.00 | 0.00 | 44 | 1012.1 |
| 20260506182103 | 78 | 165 | 3.0 | 9.0 | 0.00 | 0.00 | 0.00 | 45 | 1012.3 |
| 20260506181043 | 78 | 164 | 7.0 | 16.0 | 0.00 | 0.00 | 0.00 | 45 | 1012.3 |
| 20260506180044 | 78 | 171 | 9.0 | 15.0 | 0.00 | 0.00 | 0.00 | 45 | 1012.3 |
| 20260506175043 | 78 | 161 | 3.0 | 9.0 | 0.00 | 0.00 | 0.00 | 45 | 1012.4 |
| 20260506174043 | 78 | 180 | 3.0 | 10.0 | 0.00 | 0.00 | 0.00 | 45 | 1012.4 |
| 20260506173104 | 78 | 154 | 4.0 | 13.0 | 0.00 | 0.00 | 0.00 | 44 | 1012.4 |
| 20260506172044 | 77 | 188 | 4.0 | 14.0 | 0.00 | 0.00 | 0.00 | 45 | 1012.5 |
| 20260506171044 | 75 | 297 | 2.0 | 5.0 | 0.00 | 0.00 | 0.00 | 48 | 1012.6 |
| 20260506170104 | 75 | 34 | 4.0 | 8.0 | 0.00 | 0.00 | 0.00 | 47 | 1012.7 |
| 20260506165044 | 75 | 34 | 1.0 | 6.0 | 0.00 | 0.00 | 0.00 | 46 | 1012.8 |
| 20260506164044 | 75 | 47 | 4.0 | 9.0 | 0.00 | 0.00 | 0.00 | 47 | 1012.8 |
| 20260506163045 | 75 | 86 | 1.0 | 7.0 | 0.00 | 0.00 | 0.00 | 46 | 1012.9 |
| 20260506162044 | 75 | 52 | 1.0 | 6.0 | 0.00 | 0.00 | 0.00 | 45 | 1013.0 |
| 20260506161105 | 74 | 48 | 0.0 | 4.0 | 0.00 | 0.00 | 0.00 | 46 | 1013.1 |
| 20260506160045 | 74 | 81 | 1.0 | 4.0 | 0.00 | 0.00 | 0.00 | 48 | 1013.1 |
| 20260506155045 | 73 | 51 | 1.0 | 5.0 | 0.00 | 0.00 | 0.00 | 50 | 1013.0 |
| 20260506154045 | 72 | 31 | 0.0 | 2.0 | 0.00 | 0.00 | 0.00 | 51 | 1013.0 |
| 20260506153046 | 71 | 55 | 1.0 | 4.0 | 0.00 | 0.00 | 0.00 | 53 | 1012.9 |
| 20260506152046 | 69 | 0.0 | 0.0 | 0.00 | 0.00 | 0.00 | 55 | 1013.0 | |
| 20260506151106 | 68 | 32 | 0.0 | 1.0 | 0.00 | 0.00 | 0.00 | 58 | 1013.0 |
| 20260506150046 | 67 | 43 | 1.0 | 3.0 | 0.00 | 0.00 | 0.00 | 60 | 1013.0 |
| 20260506145046 | 66 | 0.0 | 0.0 | 0.00 | 0.00 | 0.00 | 62 | 1013.0 | |
| 20260506144046 | 65 | 46 | 0.0 | 3.0 | 0.00 | 0.00 | 0.00 | 64 | 1013.0 |
| 20260506143046 | 63 | 18 | 0.0 | 2.0 | 0.00 | 0.00 | 0.00 | 68 | 1013.0 |
| 20260506142046 | 61 | 350 | 0.0 | 1.0 | 0.00 | 0.00 | 0.00 | 71 | 1012.9 |
| 20260506141046 | 60 | 245 | 0.0 | 3.0 | 0.00 | 0.00 | 0.00 | 74 | 1012.8 |
| 20260506140106 | 58 | 0.0 | 0.0 | 0.00 | 0.00 | 0.00 | 78 | 1012.8 | |
| 20260506135047 | 56 | 0.0 | 0.0 | 0.00 | 0.00 | 0.00 | 79 | 1012.7 | |
| 20260506134047 | 54 | 107 | 0.0 | 2.0 | 0.00 | 0.00 | 0.00 | 81 | 1012.6 |
| 20260506133048 | 54 | 140 | 1.0 | 4.0 | 0.00 | 0.00 | 0.00 | 82 | 1012.6 |
| 20260506132047 | 53 | 119 | 0.0 | 1.0 | 0.00 | 0.00 | 0.00 | 83 | 1012.4 |
| 20260506131047 | 52 | 114 | 4.0 | 6.0 | 0.00 | 0.00 | 0.00 | 84 | 1012.3 |
| 20260506130047 | 50 | 74 | 5.0 | 8.0 | 0.00 | 0.00 | 0.00 | 84 | 1012.2 |
| 20260506125047 | 50 | 133 | 0.0 | 1.0 | 0.00 | 0.00 | 0.00 | 82 | 1012.1 |
| 20260506124047 | 50 | 342 | 0.0 | 1.0 | 0.00 | 0.00 | 0.00 | 82 | 1012.0 |
| 20260506123047 | 50 | 179 | 0.0 | 2.0 | 0.00 | 0.00 | 0.00 | 81 | 1012.0 |
| 20260506122107 | 51 | 146 | 0.0 | 0.0 | 0.00 | 0.00 | 0.00 | 81 | 1011.9 |
| 20260506121048 | 51 | 0.0 | 0.0 | 0.00 | 0.00 | 0.00 | 81 | 1011.8 | |
| 20260506120047 | 51 | 131 | 0.0 | 3.0 | 0.00 | 0.00 | 0.00 | 81 | 1011.8 |
| 20260506115048 | 51 | 125 | 1.0 | 4.0 | 0.00 | 0.00 | 0.00 | 81 | 1011.7 |
| 20260506114048 | 52 | 156 | 0.0 | 2.0 | 0.00 | 0.00 | 0.00 | 80 | 1011.7 |
| 20260506113048 | 51 | 147 | 1.0 | 6.0 | 0.00 | 0.00 | 0.00 | 80 | 1011.7 |
| 20260506112048 | 52 | 151 | 0.0 | 3.0 | 0.00 | 0.00 | 0.00 | 79 | 1011.6 |
| 20260506111049 | 52 | 0.0 | 0.0 | 0.00 | 0.00 | 0.00 | 78 | 1011.5 | |
| 20260506110049 | 52 | 163 | 0.0 | 2.0 | 0.00 | 0.00 | 0.00 | 78 | 1011.4 |
| 20260506105108 | 52 | 152 | 0.0 | 1.0 | 0.00 | 0.00 | 0.00 | 77 | 1011.3 |
| 20260506104049 | 53 | 114 | 1.0 | 4.0 | 0.00 | 0.00 | 0.00 | 75 | 1011.3 |
| 20260506103049 | 53 | 137 | 0.0 | 1.0 | 0.00 | 0.00 | 0.00 | 74 | 1011.2 |
| 20260506102049 | 53 | 226 | 1.0 | 3.0 | 0.00 | 0.00 | 0.00 | 75 | 1011.1 |
| 20260506101049 | 53 | 199 | 1.0 | 4.0 | 0.00 | 0.00 | 0.00 | 75 | 1011.2 |
| 20260506100049 | 54 | 167 | 0.0 | 1.0 | 0.00 | 0.00 | 0.00 | 74 | 1011.1 |
| 20260506095049 | 55 | 0.0 | 0.0 | 0.00 | 0.00 | 0.00 | 74 | 1011.2 | |
| 20260506094050 | 55 | 150 | 0.0 | 2.0 | 0.00 | 0.00 | 0.00 | 73 | 1011.1 |
| 20260506093109 | 56 | 85 | 0.0 | 2.0 | 0.00 | 0.00 | 0.00 | 71 | 1011.1 |
| 20260506092049 | 56 | 85 | 0.0 | 2.0 | 0.00 | 0.00 | 0.00 | 70 | 1011.0 |
| 20260506091050 | 57 | 246 | 1.0 | 3.0 | 0.00 | 0.00 | 0.00 | 69 | 1011.0 |
| 20260506090050 | 58 | 195 | 0.0 | 3.0 | 0.00 | 0.00 | 0.00 | 68 | 1010.9 |
| 20260506085051 | 59 | 133 | 0.0 | 3.0 | 0.00 | 0.00 | 0.00 | 66 | 1010.9 |
| 20260506084050 | 59 | 0.0 | 0.0 | 0.00 | 0.00 | 0.00 | 65 | 1010.9 | |
| 20260506083051 | 61 | 230 | 0.0 | 2.0 | 0.00 | 0.00 | 0.00 | 62 | 1010.9 |
| 20260506082050 | 62 | 225 | 0.0 | 1.0 | 0.00 | 0.00 | 0.00 | 61 | 1010.8 |
| 20260506081050 | 63 | 96 | 0.0 | 1.0 | 0.00 | 0.00 | 0.00 | 60 | 1010.7 |
| 20260506073051 | 67 | 0.0 | 0.0 | 0.00 | 0.00 | 0.00 | 53 | 1010.5 | |
| 20260506072051 | 68 | 297 | 0.0 | 4.0 | 0.00 | 0.00 | 0.00 | 51 | 1010.3 |
| 20260506071051 | 69 | 131 | 0.0 | 3.0 | 0.00 | 0.00 | 0.00 | 48 | 1010.2 |
| 20260506070111 | 70 | 106 | 0.0 | 2.0 | 0.00 | 0.00 | 0.00 | 46 | 1010.0 |
| 20260506062052 | 75 | 272 | 4.0 | 8.0 | 0.00 | 0.00 | 0.00 | 38 | 1009.8 |
| 20260506061052 | 75 | 180 | 6.0 | 11.0 | 0.00 | 0.00 | 0.00 | 38 | 1009.6 |
| 20260506051052 | 76 | 167 | 5.0 | 11.0 | 0.00 | 0.00 | 0.00 | 37 | 1009.4 |
| 20260506045114 | 78 | 194 | 2.0 | 6.0 | 0.00 | 0.00 | 0.00 | 35 | 1009.4 |
| 20260506044053 | 78 | 173 | 4.0 | 11.0 | 0.00 | 0.00 | 0.00 | 34 | 1009.3 |
| 20260506043054 | 78 | 167 | 4.0 | 10.0 | 0.00 | 0.00 | 0.00 | 34 | 1009.2 |
| 20260506042114 | 78 | 161 | 4.0 | 10.0 | 0.00 | 0.00 | 0.00 | 34 | 1009.2 |
| 20260506041054 | 78 | 165 | 3.0 | 9.0 | 0.00 | 0.00 | 0.00 | 35 | 1009.1 |
| 20260506040055 | 78 | 160 | 4.0 | 10.0 | 0.00 | 0.00 | 0.00 | 35 | 1009.1 |
| 20260506035055 | 77 | 162 | 4.0 | 9.0 | 0.00 | 0.00 | 0.00 | 36 | 1009.0 |
| 20260506034055 | 77 | 154 | 1.0 | 6.0 | 0.00 | 0.00 | 0.00 | 38 | 1008.9 |
| 20260506033055 | 77 | 146 | 1.0 | 5.0 | 0.00 | 0.00 | 0.00 | 38 | 1008.9 |
| 20260506032055 | 77 | 164 | 4.0 | 8.0 | 0.00 | 0.00 | 0.00 | 38 | 1008.9 |
| 20260506031056 | 79 | 160 | 7.0 | 12.0 | 0.00 | 0.00 | 0.00 | 37 | 1008.9 |
| 20260506030055 | 80 | 155 | 6.0 | 10.0 | 0.00 | 0.00 | 0.00 | 36 | 1008.8 |
| 20260506025055 | 81 | 159 | 5.0 | 9.0 | 0.00 | 0.00 | 0.00 | 36 | 1008.8 |
| 20260506024056 | 83 | 157 | 3.0 | 10.0 | 0.00 | 0.00 | 0.00 | 35 | 1008.7 |
| 20260506023055 | 83 | 108 | 1.0 | 8.0 | 0.00 | 0.00 | 0.00 | 34 | 1008.7 |
| 20260506022056 | 84 | 107 | 1.0 | 5.0 | 0.00 | 0.00 | 0.00 | 35 | 1008.7 |
| 20260506021055 | 85 | 101 | 2.0 | 7.0 | 0.00 | 0.00 | 0.00 | 33 | 1008.7 |
| 20260506020056 | 85 | 135 | 2.0 | 6.0 | 0.00 | 0.00 | 0.00 | 33 | 1008.6 |
| 20260506015056 | 86 | 56 | 3.0 | 8.0 | 0.00 | 0.00 | 0.00 | 33 | 1008.5 |
| 20260506014137 | 87 | 52 | 2.0 | 7.0 | 0.00 | 0.00 | 0.00 | 32 | 1008.5 |
| 20260506013056 | 88 | 50 | 3.0 | 7.0 | 0.00 | 0.00 | 0.00 | 31 | 1008.5 |
| 20260506012059 | 88 | 50 | 2.0 | 6.0 | 0.00 | 0.00 | 0.00 | 31 | 1008.6 |
| 20260506011056 | 87 | 0.0 | 0.0 | 0.00 | 0.00 | 0.00 | 31 | 1008.6 | |
| 20260506010057 | 87 | 20 | 2.0 | 6.0 | 0.00 | 0.00 | 0.00 | 31 | 1008.6 |
| 20260506005057 | 87 | 281 | 0.0 | 4.0 | 0.00 | 0.00 | 0.00 | 31 | 1008.6 |
| 20260506004057 | 87 | 38 | 0.0 | 4.0 | 0.00 | 0.00 | 0.00 | 31 | 1008.6 |
| 20260506003057 | 86 | 47 | 1.0 | 6.0 | 0.00 | 0.00 | 0.00 | 31 | 1008.7 |
| 20260506002057 | 85 | 47 | 1.0 | 5.0 | 0.00 | 0.00 | 0.00 | 32 | 1008.7 |
| 20260506001117 | 85 | 57 | 3.0 | 9.0 | 0.00 | 0.00 | 0.00 | 32 | 1008.8 |
| 20260506000057 | 86 | 45 | 3.0 | 11.0 | 0.00 | 0.00 | 0.00 | 33 | 1008.9 |